TimeEDT,TemperatureF,Dew PointF,Humidity,Sea Level PressureIn,VisibilityMPH,Wind Direction,Wind SpeedMPH,Gust SpeedMPH,PrecipitationIn,Events,Conditions,WindDirDegrees,DateUTC
12:05 AM,71.6,64.4,78,29.71,10.0,Calm,Calm,-,N/A,,Mostly Cloudy,0,2013-06-28 04:05:00
12:25 AM,69.8,66.2,88,29.69,10.0,Calm,Calm,-,N/A,,Scattered Clouds,0,2013-06-28 04:25:00
12:45 AM,69.8,66.2,88,29.68,10.0,Calm,Calm,-,N/A,,Clear,0,2013-06-28 04:45:00
1:05 AM,69.8,66.2,88,29.68,10.0,Calm,Calm,-,N/A,,Clear,0,2013-06-28 05:05:00
1:25 AM,69.8,66.2,88,29.68,10.0,Calm,Calm,-,N/A,,Clear,0,2013-06-28 05:25:00
1:45 AM,68.0,64.4,88,29.68,10.0,Calm,Calm,-,N/A,,Clear,0,2013-06-28 05:45:00
2:05 AM,68.0,64.4,88,29.67,10.0,Calm,Calm,-,N/A,,Scattered Clouds,0,2013-06-28 06:05:00
2:25 AM,68.0,66.2,94,29.67,7.0,WSW,4.6,-,N/A,,Scattered Clouds,240,2013-06-28 06:25:00
2:45 AM,69.8,66.2,88,29.66,7.0,Calm,Calm,-,N/A,,Overcast,0,2013-06-28 06:45:00
3:05 AM,69.8,66.2,88,29.66,10.0,WSW,5.8,-,N/A,,Overcast,240,2013-06-28 07:05:00
3:25 AM,69.8,64.4,83,29.65,10.0,West,6.9,-,N/A,,Overcast,260,2013-06-28 07:25:00
3:45 AM,69.8,64.4,83,29.65,10.0,West,5.8,-,N/A,,Overcast,270,2013-06-28 07:45:00
4:05 AM,69.8,64.4,83,29.65,10.0,West,6.9,-,N/A,,Overcast,260,2013-06-28 08:05:00
4:25 AM,68.0,64.4,88,29.64,10.0,WSW,8.1,-,N/A,,Scattered Clouds,250,2013-06-28 08:25:00
4:45 AM,68.0,62.6,83,29.64,10.0,West,5.8,-,N/A,,Scattered Clouds,270,2013-06-28 08:45:00
5:05 AM,68.0,62.6,83,29.64,10.0,West,3.5,-,N/A,,Clear,270,2013-06-28 09:05:00
5:25 AM,66.2,62.6,88,29.64,10.0,Calm,Calm,-,N/A,,Clear,0,2013-06-28 09:25:00
5:45 AM,66.2,62.6,88,29.64,10.0,Calm,Calm,-,N/A,,Clear,0,2013-06-28 09:45:00
6:05 AM,64.4,62.6,94,29.64,10.0,Calm,Calm,-,N/A,,Scattered Clouds,0,2013-06-28 10:05:00
6:25 AM,66.2,62.6,88,29.65,10.0,WSW,3.5,-,N/A,,Scattered Clouds,250,2013-06-28 10:25:00
6:45 AM,66.2,62.6,88,29.64,10.0,West,3.5,-,N/A,,Clear,270,2013-06-28 10:45:00
7:05 AM,68.0,64.4,88,29.64,10.0,Calm,Calm,-,N/A,,Clear,0,2013-06-28 11:05:00
7:25 AM,68.0,64.4,88,29.64,10.0,Calm,Calm,-,N/A,,Clear,0,2013-06-28 11:25:00
7:45 AM,71.6,64.4,78,29.64,10.0,NW,5.8,-,N/A,,Clear,310,2013-06-28 11:45:00
8:05 AM,71.6,64.4,78,29.64,10.0,WNW,6.9,-,N/A,,Clear,300,2013-06-28 12:05:00
8:25 AM,73.4,64.4,73,29.64,10.0,WNW,9.2,-,N/A,,Clear,300,2013-06-28 12:25:00
8:45 AM,73.4,64.4,73,29.64,10.0,NW,9.2,-,N/A,,Clear,320,2013-06-28 12:45:00
9:05 AM,75.2,64.4,69,29.64,10.0,WNW,10.4,-,N/A,,Scattered Clouds,290,2013-06-28 13:05:00
9:25 AM,75.2,64.4,69,29.64,10.0,WNW,9.2,-,N/A,,Mostly Cloudy,290,2013-06-28 13:25:00
9:45 AM,75.2,64.4,69,29.64,10.0,NW,9.2,-,N/A,,Scattered Clouds,310,2013-06-28 13:45:00
10:05 AM,77.0,64.4,65,29.63,10.0,NW,11.5,19.6,N/A,,Scattered Clouds,310,2013-06-28 14:05:00
10:25 AM,75.2,62.6,65,29.64,10.0,NNW,11.5,-,N/A,,Mostly Cloudy,330,2013-06-28 14:25:00
10:45 AM,77.0,62.6,61,29.64,10.0,WNW,8.1,-,N/A,,Mostly Cloudy,300,2013-06-28 14:45:00
11:05 AM,77.0,62.6,61,29.63,10.0,WNW,11.5,-,N/A,,Scattered Clouds,290,2013-06-28 15:05:00
11:25 AM,78.8,62.6,57,29.63,10.0,West,12.7,-,N/A,,Clear,280,2013-06-28 15:25:00
11:45 AM,80.6,62.6,54,29.63,10.0,WNW,9.2,19.6,N/A,,Scattered Clouds,300,2013-06-28 15:45:00
12:05 PM,80.6,62.6,54,29.62,10.0,West,12.7,17.3,N/A,,Scattered Clouds,280,2013-06-28 16:05:00
12:25 PM,82.4,60.8,48,29.61,10.0,West,15.0,18.4,N/A,,Scattered Clouds,280,2013-06-28 16:25:00
12:45 PM,80.6,60.8,51,29.61,10.0,WNW,15.0,21.9,N/A,,Mostly Cloudy,300,2013-06-28 16:45:00
1:05 PM,80.6,59.0,48,29.61,10.0,WNW,15.0,23.0,N/A,,Overcast,300,2013-06-28 17:05:00
1:25 PM,73.4,55.4,53,29.62,10.0,North,11.5,21.9,N/A,,Overcast,350,2013-06-28 17:25:00
1:45 PM,68.0,55.4,64,29.62,2.0,WNW,10.4,24.2,N/A,,Overcast,300,2013-06-28 17:45:00
2:05 PM,73.4,62.6,69,29.61,10.0,WNW,9.2,-,N/A,,Mostly Cloudy,290,2013-06-28 18:05:00
2:25 PM,78.8,66.2,65,29.60,10.0,WNW,12.7,17.3,N/A,,Scattered Clouds,300,2013-06-28 18:25:00
2:45 PM,80.6,64.4,58,29.60,10.0,WNW,13.8,17.3,N/A,,Scattered Clouds,290,2013-06-28 18:45:00
3:05 PM,80.6,60.8,51,29.59,10.0,WNW,12.7,20.7,N/A,,Mostly Cloudy,290,2013-06-28 19:05:00
3:25 PM,82.4,59.0,45,29.59,10.0,WNW,13.8,25.3,N/A,,Mostly Cloudy,300,2013-06-28 19:25:00
3:45 PM,80.6,57.2,45,29.59,10.0,NW,13.8,23.0,N/A,,Mostly Cloudy,320,2013-06-28 19:45:00
4:05 PM,80.6,57.2,45,29.58,10.0,NW,12.7,18.4,N/A,,Mostly Cloudy,320,2013-06-28 20:05:00
4:25 PM,78.8,57.2,47,29.58,10.0,WNW,17.3,23.0,N/A,,Mostly Cloudy,290,2013-06-28 20:25:00
4:45 PM,78.8,57.2,47,29.58,10.0,NW,10.4,-,N/A,,Scattered Clouds,320,2013-06-28 20:45:00
5:05 PM,78.8,57.2,47,29.60,10.0,WNW,16.1,26.5,N/A,,Clear,290,2013-06-28 21:05:00
5:25 PM,71.6,50.0,46,29.61,10.0,North,16.1,24.2,N/A,,Mostly Cloudy,360,2013-06-28 21:25:00
5:45 PM,71.6,53.6,53,29.61,10.0,NW,8.1,-,N/A,,Scattered Clouds,310,2013-06-28 21:45:00
6:05 PM,73.4,57.2,57,29.60,10.0,West,11.5,16.1,N/A,,Clear,270,2013-06-28 22:05:00
6:25 PM,75.2,53.6,47,29.59,10.0,West,10.4,16.1,N/A,,Clear,270,2013-06-28 22:25:00
6:45 PM,73.4,53.6,50,29.60,10.0,West,9.2,-,N/A,,Clear,270,2013-06-28 22:45:00
7:05 PM,75.2,51.8,44,29.61,10.0,WNW,15.0,19.6,N/A,,Clear,300,2013-06-28 23:05:00
7:25 PM,75.2,51.8,44,29.61,10.0,NW,10.4,-,N/A,,Clear,310,2013-06-28 23:25:00
7:45 PM,75.2,53.6,47,29.61,10.0,NW,8.1,-,N/A,,Clear,310,2013-06-28 23:45:00
8:05 PM,69.8,57.2,64,29.63,10.0,NE,8.1,-,N/A,,Mostly Cloudy,40,2013-06-29 00:05:00
8:25 PM,69.8,59.0,68,29.63,10.0,Calm,Calm,-,N/A,,Overcast,0,2013-06-29 00:25:00
8:45 PM,68.0,59.0,73,29.62,10.0,Calm,Calm,-,N/A,,Overcast,0,2013-06-29 00:45:00
9:05 PM,66.2,60.8,83,29.63,10.0,Calm,Calm,-,N/A,,Mostly Cloudy,0,2013-06-29 01:05:00
9:25 PM,68.0,59.0,73,29.64,10.0,West,9.2,-,N/A,,Overcast,280,2013-06-29 01:25:00
9:45 PM,66.2,59.0,78,29.63,10.0,WSW,3.5,-,N/A,,Mostly Cloudy,250,2013-06-29 01:45:00
10:05 PM,64.4,59.0,83,29.62,10.0,Calm,Calm,-,N/A,,Scattered Clouds,0,2013-06-29 02:05:00
10:25 PM,62.6,59.0,88,29.62,10.0,Calm,Calm,-,N/A,,Clear,0,2013-06-29 02:25:00
10:45 PM,62.6,59.0,88,29.63,10.0,Calm,Calm,-,N/A,,Clear,0,2013-06-29 02:45:00
11:05 PM,62.6,57.2,82,29.63,10.0,West,4.6,-,N/A,,Clear,260,2013-06-29 03:05:00
11:25 PM,62.6,59.0,88,29.62,10.0,WSW,4.6,-,N/A,,Clear,240,2013-06-29 03:25:00
11:45 PM,62.6,59.0,88,29.62,10.0,Calm,Calm,-,N/A,,Clear,0,2013-06-29 03:45:00